This demonstration page uses our WeatherBlox Daily Observations layout. Learn more.

Left ArrowRight Arrow

41.86663, -103.66717

Hourly Observations for March 8, 2018

Temp ( °F °C ) Dew Point ( °F °C ) Humidity (%) Winds ( mph kmh ) Pressure ( in mb ) Visibility ( mi km ) Precip ( " mm )
12:53 am 00:53 Clear 21 -6.1 17 -8.3 85 85 E 6 9 30.13 1020 10 16 N/A
1:53 am 01:53 Clear 21 -6.1 16 -8.9 81 81 E 7 11 30.09 1019 10 16 N/A
2:53 am 02:53 Clear 23 -5 17 -8.3 78 78 E 10 17 30.05 1018 10 16 N/A
3:53 am 03:53 Clear 21 -6.1 15 -9.4 78 78 NE 6 9 30.04 1017 10 16 N/A
4:53 am 04:53 Clear 20 -6.7 15 -9.4 81 81 NNE 3 6 30.04 1017 10 16 N/A
5:53 am 05:53 Clear 19 -7.2 15 -9.4 84 84 N N/A 30.07 1018 10 16 N/A
6:53 am 06:53 Sunny 22 -5.6 18 -7.8 85 85 NW 3 6 30.08 1019 10 16 N/A
7:53 am 07:53 Sunny 29 -1.7 19 -7.2 66 66 NW 5 7 30.07 1018 10 16 N/A
8:53 am 08:53 Sunny 37 2.8 20 -6.7 50 50 WNW 8 13 30.05 1018 10 16 N/A
9:53 am 09:53 Sunny 45 7.2 20 -6.7 37 37 WNW 8 13 30.03 1017 10 16 N/A
10:53 am 10:53 Sunny 53 11.7 18 -7.8 25 25 W 10 17 29.99 1016 10 16 N/A
11:53 am 11:53 Sunny 56 13.3 9 -12.8 15 15 VRB 6 9 29.95 1014 10 16 N/A
12:53 pm 12:53 Sunny 59 15 8 -13.3 13 13 N N/A 29.92 1013 10 16 N/A
1:53 pm 13:53 Sunny 62 16.7 12 -11.1 14 14 NW 8 13 29.87 1012 10 16 N/A
2:53 pm 14:53 Sunny 61 16.1 11 -11.7 14 14 N N/A 29.84 1010 10 16 N/A
3:53 pm 15:53 Sunny 61 16.1 14 -10 16 16 SSE 7 11 29.81 1009 10 16 N/A
4:53 pm 16:53 Sunny 57 13.9 15 -9.4 19 19 SSE 9 15 29.83 1010 10 16 N/A
5:53 pm 17:53 Clear 50 10 16 -8.9 26 26 SE 5 7 29.83 1010 10 16 N/A
6:53 pm 18:53 Clear 49 9.4 16 -8.9 27 27 E 5 7 29.83 1010 10 16 N/A
7:53 pm 19:53 Clear 52 11.1 18 -7.8 26 26 W 10 17 29.79 1009 10 16 N/A
8:53 pm 20:53 Mostly Clear 46 7.8 20 -6.7 35 35 WNW 8 13 29.78 1009 10 16 N/A
9:53 pm 21:53 Clear 49 9.4 19 -7.2 31 31 W 10 17 29.76 1008 10 16 N/A
10:53 pm 22:53 Clear 50 10 19 -7.2 29 29 W 12 19 29.72 1007 10 16 N/A
11:53 pm 23:53 Clear 41 5 20 -6.7 43 43 WNW 10 17 29.74 1007 10 16 N/A

Powered by AerisWeather